This demonstration page uses our WeatherBlox Daily Observations layout. Learn more.

Left ArrowRight Arrow

38.83388, -104.82136

Hourly Observations for November 10, 2019

Temp ( °F °C ) Dew Point ( °F °C ) Humidity (%) Winds ( mph kmh ) Pressure ( in mb ) Visibility ( mi km ) Precip ( " mm )
12:58 am 00:58 Clear 51 10.7 12 -11.3 20 20 SW 3 6 29.61 1003 10 16 0.00 0.00
1:58 am 01:58 Clear 50 9.8 16 -8.8 26 26 NW 5 7 29.62 1003 10 16 0.00 0.00
2:58 am 02:58 Clear 49 9.2 17 -8.4 28 28 W 6 9 29.64 1004 10 16 0.00 0.00
3:58 am 03:58 Clear 49 9.5 13 -10.4 24 24 Calm 29.63 1004 10 16 0.00 0.00
4:58 am 04:58 Clear 48 8.7 13 -10.7 24 24 SSE 7 11 29.65 1004 10 16 0.00 0.00
5:58 am 05:58 Clear 45 7.4 15 -9.4 29 29 Calm 29.68 1005 10 16 0.00 0.00
6:58 am 06:58 Sunny 44 6.7 14 -9.8 30 30 Calm 29.93 1013 10 16 0.00 0.00
7:58 am 07:58 Sunny 47 8.3 15 -9.2 28 28 Calm 29.66 1004 10 16 0.00 0.00
8:58 am 08:58 Sunny 49 9.6 19 -7.2 30 30 Calm 29.63 1003 10 16 0.00 0.00
9:58 am 09:58 Sunny 57 14 15 -9.4 19 19 Calm 29.73 1007 10 16 0.00 0.00
10:58 am 10:58 Sunny 59 15.1 17 -8.5 19 19 Calm 29.57 1001 10 16 0.00 0.00
11:58 am 11:58 Sunny 62 16.7 17 -8.2 17 17 E 5 7 29.52 1000 10 16 0.00 0.00
12:58 pm 12:58 Sunny 61 16.1 20 -6.7 20 20 Calm 29.51 999 10 16 0.00 0.00
1:58 pm 13:58 Sunny 62 16.4 17 -8.5 17 17 SE 9 15 29.50 999 10 16 0.00 0.00
2:58 pm 14:58 Sunny 55 12.6 20 -6.7 26 26 W 3 6 29.54 1000 10 16 0.00 0.00
3:58 pm 15:58 Sunny 54 12.2 20 -6.9 26 26 S 3 6 29.55 1001 10 16 0.00 0.00
4:58 pm 16:58 Clear 51 10.3 20 -6.7 30 30 WSW 3 6 29.59 1002 10 16 0.00 0.00
5:58 pm 17:58 Mostly Cloudy 52 11.1 18 -8 26 26 SSW 6 9 29.61 1003 10 16 0.00 0.00
7:58 pm 19:58 Mostly Cloudy 49 9.4 19 -7.2 31 31 WNW 7 11 29.65 1004 10 16 0.00 0.00
8:58 pm 20:58 Mostly Cloudy 49 9.4 17 -8.4 28 28 Calm 29.64 1004 10 16 0.00 0.00
9:59 pm 21:59 undefined N/A N/A N/A NNW 18 30 N/A N/A 0.00 0.00
10:58 pm 22:58 Clear 33 0.4 27 -2.8 79 79 NNW 16 26 29.75 1007 10 16 0.00 0.00
11:58 pm 23:58 Mostly Cloudy 31 -0.6 28 -2.3 88 88 N 15 24 29.78 1008 10 16 0.00 0.00

Powered by AerisWeather